Regional Weather Roundup
Issued by NWS

Home | Current Version | Previous Version | Text Only | Print | Product List | Glossary On
Versions: 1 2 3 4 5 6 7 8 9 10 11 12 13 14 15 16 17 18 19 20 21 22 23 24 25 26 27 28 29 30 31 32 33 34 35 36 37 38 39 40 41 42 43 44 45 46 47 48 49 50
000
ASUS44 KOUN 192200
RWROK

WEATHER ROUNDUP FOR OKLAHOMA
NATIONAL WEATHER SERVICE NORMAN OK
500 PM CDT THU APR 19 2018

NOTE: "FAIR" INDICATES FEW OR NO CLOUDS BELOW 12,000 FEET WITH NO
      SIGNIFICANT WEATHER AND/OR OBSTRUCTIONS TO VISIBILITY.

OKZ001>007-009>012-014-015-017-192300-
NORTHWEST OKLAHOMA AND THE PANHANDLE

CITY           SKY/WX    TMP DP  RH WIND       PRES   REMARKS
GAGE           SUNNY     67  26  21 E12G17    30.28F
GUYMON         SUNNY     69  23  17 S15G24    30.21F
ENID/WOODRING  MOSUNNY   66  34  30 N9G18     30.31F
$$

OKZ016-021>023-033>039-044-045-192300-
SOUTHWEST OKLAHOMA

CITY           SKY/WX    TMP DP  RH WIND       PRES   REMARKS
LAWTON/REGL    SUNNY     70  32  24 N10       30.30F
LAWTON/FT SILL SUNNY     69  36  29 N12       30.28F
FREDERICK      SUNNY     71  29  21 NE9       30.26F
CLINTON        SUNNY     65  27  23 E12       30.31F
HOBART         SUNNY     68  31  25 E10       30.31F
ALTUS AFB      SUNNY     71  24  17 E9        30.28F
$$

OKZ018>020-024>031-192300-
CENTRAL OKLAHOMA

CITY           SKY/WX    TMP DP  RH WIND       PRES   REMARKS
OKLAHOMA CITY  MOSUNNY   65  28  24 NE9       30.30F
OKC/WILEY POST SUNNY     66  30  26 NE10      30.31F
OKC/TINKER AFB SUNNY     67  30  25 NE9       30.29F
STILLWATER     SUNNY     65  30  27 VRB6G18   30.31F
GUTHRIE        SUNNY     65  33  30 E8        30.31F
$$

OKZ008-013-054>072-192300-
NORTHEAST OKLAHOMA

CITY           SKY/WX    TMP DP  RH WIND       PRES   REMARKS
TULSA          PTSUNNY   62  32  32 N12       30.33F
TULSA/JONES    SUNNY     61  33  35 NE15      30.34F
PONCA CITY     SUNNY     62  31  31 E15       30.33F
BARTLESVILLE   SUNNY     60  26  27 E7        30.37F
MUSKOGEE       MOSUNNY   61  35  37 NE12      30.33F
$$

OKZ032-040>043-046>053-073>077-192300-
SOUTH CENTRAL/SOUTHEAST OKLAHOMA

CITY           SKY/WX    TMP DP  RH WIND       PRES   REMARKS
MCALESTER      MOSUNNY   61  37  41 NE6G16    30.31F
$$





USA.gov is the U.S. government's official web portal to all federal, state and local government web resources and services.